sat.trackr.live / text

‹ back to catalog

KUIPER-00156

NORAD 65775 · 2025-217P

PAYLOAD ACTIVE UNKNOWN

§ Identity

Operator
Country
US
Launch date
2025-09-25
Launch site
AFETR
Launch vehicle
Mass (kg)
RCS (m²)

External: N2YO · Heavens-Above · Gunter

§ Orbital elements

Epoch: 2026-09-20T11:48:26.207136Z

Period
97.30 min
Inclination
51.9037°
Eccentricity
0.0000715
Mean motion
14.79940167 rev/d
Perigee alt
629.0 km
Apogee alt
630.0 km
Semi-major
7,007.7 km
B*
2.8152e-4
RAAN
244.2577°
Arg perigee
59.9362°
Mean anomaly
300.1671°
Rev number
5,396

§ Raw data

KUIPER-001561 65775U 25217P   26263.49196999  .00001926  00000+0  28152-3 0  99902 65775  51.9037 244.2577 0000715  59.9362 300.1671 14.79940167 53964

JSON: /api/v1/satellites/65775 · /tle

For live sub-satellite position, see the globe view (requires WebGL).

§ Visibility from observer

Set your observer location to see the next 7 days of passes ≥ 10°. The values pass through the URL so the page stays shareable.

No JS? Fill the form by hand. The geolocation button needs JavaScript.